timestamp,wind_dir_avg,wind_spd_avg,wind_spd_max_dir,wind_spd_gust,battery_voltage,lat,long
2023-08-07 00:04:00+00:00,73.0,5.12,75.0,5.92,12.49,47.59359,-54.27349
2023-08-07 00:14:00+00:00,71.0,4.17,69.0,5.25,12.41,47.59359,-54.27349
2023-08-07 00:24:00+00:00,69.0,4.59,71.0,5.32,12.41,47.59359,-54.27349
2023-08-07 00:34:00+00:00,65.0,4.26,67.0,4.81,12.41,47.59359,-54.27349
2023-08-07 00:44:00+00:00,62.0,4.07,63.0,4.97,12.41,47.59359,-54.27349
2023-08-07 00:54:00+00:00,54.0,4.01,53.0,4.52,12.41,47.59359,-54.27349
2023-08-07 01:04:00+00:00,66.0,3.51,66.0,4.16,12.41,47.59359,-54.27349
2023-08-07 01:14:01+00:00,56.0,4.36,53.0,4.82,12.41,47.59359,-54.27349
2023-08-07 01:24:01+00:00,55.0,4.24,48.0,4.75,12.41,47.59359,-54.27349
2023-08-07 01:34:01+00:00,55.0,4.21,50.0,4.74,12.41,47.59359,-54.27349
2023-08-07 01:44:01+00:00,54.0,4.2,55.0,4.67,12.41,47.59359,-54.27349
2023-08-07 01:54:01+00:00,58.0,4.4,56.0,4.98,12.41,47.59359,-54.27349
2023-08-07 02:04:01+00:00,51.0,5.02,53.0,5.68,12.41,47.59359,-54.27349
2023-08-07 02:14:01+00:00,48.0,4.46,45.0,5.13,12.41,47.59359,-54.27349
2023-08-07 02:24:01+00:00,56.0,4.98,53.0,6.04,12.41,47.59359,-54.27349
2023-08-07 02:34:01+00:00,61.0,5.06,67.0,5.88,12.41,47.59359,-54.27349
2023-08-07 02:44:01+00:00,70.0,5.83,74.0,6.22,12.41,47.59359,-54.27349
2023-08-07 02:54:01+00:00,66.0,5.91,62.0,6.74,12.41,47.59359,-54.27349
2023-08-07 03:04:01+00:00,56.0,5.77,60.0,6.47,12.41,47.59359,-54.27349
2023-08-07 03:14:00+00:00,57.0,5.19,58.0,5.88,12.41,47.59359,-54.27349
2023-08-07 03:24:00+00:00,52.0,5.17,51.0,6.22,12.41,47.59359,-54.27349
2023-08-07 03:34:00+00:00,46.0,5.61,44.0,6.28,12.41,47.59359,-54.27349
2023-08-07 03:44:00+00:00,52.0,4.9,50.0,6.02,12.41,47.59359,-54.27349
2023-08-07 03:54:00+00:00,43.0,4.56,40.0,5.04,12.41,47.59359,-54.27349
2023-08-07 04:04:00+00:00,36.0,4.53,41.0,5.12,12.41,47.59359,-54.27349
2023-08-07 04:14:00+00:00,44.0,4.07,48.0,4.62,12.33,47.59359,-54.27349
2023-08-07 04:24:00+00:00,21.0,4.22,17.0,4.6,12.33,47.59359,-54.27349
2023-08-07 04:34:00+00:00,15.0,4.57,18.0,5.12,12.33,47.59359,-54.27349
2023-08-07 04:44:00+00:00,15.0,4.41,13.0,5.13,12.33,47.59359,-54.27349
2023-08-07 04:54:00+00:00,23.0,4.81,27.0,5.56,12.33,47.59359,-54.27349
2023-08-07 05:04:00+00:00,27.0,4.98,27.0,5.57,12.33,47.59359,-54.27349
2023-08-07 05:14:00+00:00,24.0,5.3,19.0,5.9,12.41,47.59359,-54.27349
2023-08-07 05:24:00+00:00,14.0,4.9,10.0,5.58,12.41,47.59359,-54.27349
2023-08-07 05:34:00+00:00,12.0,4.71,11.0,5.23,12.41,47.59359,-54.27349
2023-08-07 05:44:00+00:00,16.0,4.37,14.0,4.96,12.41,47.59359,-54.27349
2023-08-07 05:54:00+00:00,31.0,4.53,31.0,5.08,12.41,47.59359,-54.27349
2023-08-07 06:04:00+00:00,26.0,4.78,29.0,5.2,12.41,47.59359,-54.27349
2023-08-07 06:14:00+00:00,22.0,4.59,18.0,4.95,12.33,47.59359,-54.27349
2023-08-07 06:24:00+00:00,13.0,4.5,12.0,4.84,12.33,47.59359,-54.27349
2023-08-07 06:34:00+00:00,30.0,3.96,32.0,4.48,12.33,47.59359,-54.27349
2023-08-07 06:44:00+00:00,27.0,4.66,27.0,5.2,12.33,47.59359,-54.27349
2023-08-07 06:54:00+00:00,13.0,3.43,13.0,4.34,12.33,47.59359,-54.27349
2023-08-07 07:04:00+00:00,354.0,3.22,357.0,3.78,12.33,47.59359,-54.27349
2023-08-07 07:14:01+00:00,347.0,2.81,351.0,3.36,12.33,47.59359,-54.27349
2023-08-07 07:24:01+00:00,22.0,3.52,27.0,4.44,12.33,47.59359,-54.27349
2023-08-07 07:34:01+00:00,36.0,4.53,36.0,5.21,12.33,47.59359,-54.27349
2023-08-07 07:44:01+00:00,43.0,4.75,48.0,5.48,12.33,47.59359,-54.27349
2023-08-07 07:54:01+00:00,31.0,5.37,36.0,5.77,12.33,47.59359,-54.27349
2023-08-07 08:04:01+00:00,34.0,5.89,36.0,6.62,12.33,47.59359,-54.27349
2023-08-07 08:14:00+00:00,31.0,6.32,33.0,6.84,12.25,47.59359,-54.27349
2023-08-07 08:24:00+00:00,8.0,5.47,10.0,6.67,12.25,47.59359,-54.27349
2023-08-07 08:34:00+00:00,6.0,5.22,3.0,6.09,12.25,47.59359,-54.27349
2023-08-07 08:44:00+00:00,1.0,5.38,2.0,6.23,12.25,47.59359,-54.27349
2023-08-07 08:54:00+00:00,2.0,5.61,1.0,6.08,12.25,47.59359,-54.27349
2023-08-07 09:04:00+00:00,357.0,4.34,354.0,4.88,12.25,47.59359,-54.27349
2023-08-07 09:14:01+00:00,358.0,4.18,1.0,4.9,12.41,47.59359,-54.27349
2023-08-07 09:24:01+00:00,0.0,4.08,358.0,4.45,12.41,47.59359,-54.27349
2023-08-07 09:34:01+00:00,3.0,4.38,1.0,5.17,12.41,47.59359,-54.27349
2023-08-07 09:44:01+00:00,359.0,4.73,0.0,5.32,12.41,47.59359,-54.27349
2023-08-07 09:54:01+00:00,355.0,6.12,352.0,6.82,12.41,47.59359,-54.27349
2023-08-07 10:04:01+00:00,1.0,6.13,3.0,6.87,12.41,47.59359,-54.27349
2023-08-07 10:14:01+00:00,0.0,5.85,2.0,6.97,13.21,47.59359,-54.27349
2023-08-07 10:24:01+00:00,3.0,6.78,0.0,7.69,13.21,47.59359,-54.27349
2023-08-07 10:34:01+00:00,353.0,6.35,352.0,7.0,13.21,47.59359,-54.27349
2023-08-07 10:44:01+00:00,358.0,6.6,359.0,7.44,13.21,47.59359,-54.27349
2023-08-07 10:54:01+00:00,356.0,5.14,1.0,5.75,13.21,47.59359,-54.27349
2023-08-07 11:04:01+00:00,8.0,5.99,3.0,6.82,13.21,47.59359,-54.27349
2023-08-07 11:14:01+00:00,17.0,6.81,11.0,7.59,13.6,47.59359,-54.27349
2023-08-07 11:24:01+00:00,14.0,5.9,13.0,6.85,13.6,47.59359,-54.27349
2023-08-07 11:34:01+00:00,12.0,5.45,10.0,6.45,13.6,47.59359,-54.27349
2023-08-07 11:44:01+00:00,20.0,6.97,22.0,7.88,13.6,47.59359,-54.27349
2023-08-07 11:54:01+00:00,17.0,7.04,22.0,8.0,13.6,47.59359,-54.27349
2023-08-07 12:04:01+00:00,11.0,6.74,11.0,8.16,13.6,47.59359,-54.27349
2023-08-07 12:14:01+00:00,16.0,7.53,18.0,9.21,13.68,47.59359,-54.27349
2023-08-07 12:24:01+00:00,11.0,7.43,15.0,8.72,13.68,47.59359,-54.27349
2023-08-07 12:34:01+00:00,14.0,7.76,19.0,8.55,13.68,47.59359,-54.27349
2023-08-07 12:44:01+00:00,17.0,7.46,15.0,8.5,13.68,47.59359,-54.27349
2023-08-07 12:54:01+00:00,14.0,6.31,15.0,7.77,13.68,47.59359,-54.27349
2023-08-07 13:04:01+00:00,20.0,6.27,20.0,7.35,13.68,47.59359,-54.27349
2023-08-07 13:14:01+00:00,17.0,6.28,15.0,7.26,13.84,47.59359,-54.27349
2023-08-07 13:24:01+00:00,24.0,5.6,20.0,7.47,13.84,47.59359,-54.27349
2023-08-07 13:34:01+00:00,30.0,5.14,30.0,5.66,13.84,47.59359,-54.27349
2023-08-07 13:44:01+00:00,34.0,4.43,34.0,5.0,13.84,47.59359,-54.27349
2023-08-07 13:54:01+00:00,44.0,4.15,46.0,5.54,13.84,47.59359,-54.27349
2023-08-07 14:04:01+00:00,45.0,8.15,45.0,8.8,13.84,47.59359,-54.27349
2023-08-07 14:14:00+00:00,53.0,7.84,52.0,8.72,13.68,47.59359,-54.27349
2023-08-07 14:24:00+00:00,49.0,8.09,51.0,9.04,13.68,47.59359,-54.27349
2023-08-07 14:34:00+00:00,44.0,9.07,40.0,9.96,13.68,47.59359,-54.27349
2023-08-07 14:44:00+00:00,45.0,8.83,42.0,9.5,13.68,47.59359,-54.27349
2023-08-07 14:54:00+00:00,48.0,8.6,52.0,9.36,13.68,47.59359,-54.27349
2023-08-07 15:04:00+00:00,47.0,7.4,49.0,8.12,13.68,47.59359,-54.27349
2023-08-07 15:14:00+00:00,43.0,9.35,44.0,10.91,14.32,47.59359,-54.27349
2023-08-07 15:24:00+00:00,43.0,8.34,44.0,9.77,14.32,47.59359,-54.27349
2023-08-07 15:34:00+00:00,41.0,10.08,39.0,10.73,14.32,47.59359,-54.27349
2023-08-07 15:44:00+00:00,51.0,9.36,49.0,10.64,14.32,47.59359,-54.27349
2023-08-07 15:54:00+00:00,48.0,8.96,50.0,10.31,14.32,47.59359,-54.27349
2023-08-07 16:04:00+00:00,47.0,10.91,50.0,12.36,14.32,47.59359,-54.27349
2023-08-07 16:14:00+00:00,48.0,10.25,48.0,11.27,13.68,47.59359,-54.27349
2023-08-07 16:24:00+00:00,44.0,10.21,39.0,11.17,13.68,47.59359,-54.27349
2023-08-07 16:34:00+00:00,47.0,9.73,49.0,11.63,13.68,47.59359,-54.27349
2023-08-07 16:44:00+00:00,44.0,9.5,45.0,10.32,13.68,47.59359,-54.27349
2023-08-07 16:54:00+00:00,48.0,8.92,51.0,9.77,13.68,47.59359,-54.27349
2023-08-07 17:04:00+00:00,40.0,9.65,39.0,11.0,13.68,47.59359,-54.27349
2023-08-07 17:14:00+00:00,36.0,9.53,40.0,10.37,13.84,47.59359,-54.27349
2023-08-07 17:24:00+00:00,39.0,8.03,40.0,9.27,13.84,47.59359,-54.27349
2023-08-07 17:34:00+00:00,43.0,10.19,43.0,11.58,13.84,47.59359,-54.27349
2023-08-07 17:44:00+00:00,32.0,8.94,27.0,9.98,13.84,47.59359,-54.27349
2023-08-07 17:54:00+00:00,21.0,6.74,17.0,7.51,13.84,47.59359,-54.27349
2023-08-07 18:04:00+00:00,49.0,7.06,49.0,7.99,13.84,47.59359,-54.27349
2023-08-07 18:14:01+00:00,54.0,7.97,54.0,8.69,14.32,47.59359,-54.27349
2023-08-07 18:24:01+00:00,38.0,11.09,38.0,12.88,14.32,47.59359,-54.27349
2023-08-07 18:34:01+00:00,48.0,10.48,48.0,11.74,14.32,47.59359,-54.27349
2023-08-07 18:44:01+00:00,36.0,9.69,37.0,10.82,14.32,47.59359,-54.27349
2023-08-07 18:54:01+00:00,41.0,9.01,42.0,9.91,14.32,47.59359,-54.27349
2023-08-07 19:04:01+00:00,38.0,7.78,44.0,8.81,14.32,47.59359,-54.27349
2023-08-07 19:14:00+00:00,29.0,10.5,29.0,11.68,13.68,47.59359,-54.27349
2023-08-07 19:24:00+00:00,37.0,11.93,34.0,13.37,13.68,47.59359,-54.27349
2023-08-07 19:34:00+00:00,39.0,10.25,36.0,11.27,13.68,47.59359,-54.27349
2023-08-07 19:44:00+00:00,27.0,8.25,31.0,9.43,13.68,47.59359,-54.27349
2023-08-07 19:54:00+00:00,27.0,8.33,30.0,9.04,13.68,47.59359,-54.27349
2023-08-07 20:04:00+00:00,28.0,8.69,29.0,11.18,13.68,47.59359,-54.27349
2023-08-07 20:14:00+00:00,28.0,8.1,33.0,10.03,13.6,47.59359,-54.27349
2023-08-07 20:24:00+00:00,37.0,9.73,39.0,10.79,13.6,47.59359,-54.27349
2023-08-07 20:34:00+00:00,41.0,10.45,37.0,11.72,13.6,47.59359,-54.27349
2023-08-07 20:44:00+00:00,22.0,8.6,23.0,9.77,13.6,47.59359,-54.27349
2023-08-07 20:54:00+00:00,29.0,8.94,32.0,9.98,13.6,47.59359,-54.27349
2023-08-07 21:04:00+00:00,26.0,8.72,27.0,9.65,13.6,47.59359,-54.27349
2023-08-07 21:14:00+00:00,33.0,9.43,34.0,10.69,13.53,47.59359,-54.27349
2023-08-07 21:24:00+00:00,31.0,8.77,33.0,9.63,13.53,47.59359,-54.27349
2023-08-07 21:34:00+00:00,21.0,6.56,22.0,7.76,13.53,47.59359,-54.27349
2023-08-07 21:44:00+00:00,27.0,6.49,31.0,7.14,13.53,47.59359,-54.27349
2023-08-07 21:54:00+00:00,12.0,5.22,10.0,5.97,13.53,47.59359,-54.27349
2023-08-07 22:04:00+00:00,18.0,6.58,15.0,7.43,13.53,47.59359,-54.27349
2023-08-07 22:14:00+00:00,10.0,6.5,11.0,8.38,13.29,47.59359,-54.27349
2023-08-07 22:24:00+00:00,4.0,7.47,0.0,10.09,13.29,47.59359,-54.27349
2023-08-07 22:34:00+00:00,359.0,8.54,1.0,9.39,13.29,47.59359,-54.27349
2023-08-07 22:44:00+00:00,358.0,8.46,352.0,10.11,13.29,47.59359,-54.27349
2023-08-07 22:54:00+00:00,13.0,9.85,10.0,10.98,13.29,47.59359,-54.27349
2023-08-07 23:04:00+00:00,21.0,7.33,23.0,8.51,13.29,47.59359,-54.27349
2023-08-07 23:14:00+00:00,19.0,7.86,31.0,8.93,12.73,47.59359,-54.27349
2023-08-07 23:24:00+00:00,7.0,7.46,2.0,8.32,12.73,47.59359,-54.27349
2023-08-07 23:34:00+00:00,16.0,6.78,18.0,8.35,12.73,47.59359,-54.27349
2023-08-07 23:44:00+00:00,5.0,6.83,4.0,8.29,12.73,47.59359,-54.27349
2023-08-07 23:54:00+00:00,26.0,10.63,30.0,12.33,12.73,47.59359,-54.27349
